Regional Weather Roundup
Issued by NWS

Home | Current Version | Previous Version | Graphics & Text | Print | Product List | Glossary Off
Versions: 1 2 3 4 5 6 7 8 9 10 11 12 13 14 15 16 17 18 19 20 21 22 23 24 25 26 27 28 29 30 31 32 33 34 35 36 37 38 39 40 41 42 43 44 45 46 47 48 49 50

000
ASUS43 KDMX 130808
RWRIA

WEATHER ROUNDUP FOR IOWA
NATIONAL WEATHER SERVICE DES MOINES IA
200 AM CST SAT FEB 13 2016

NOTE: "FAIR" INDICATES FEW OR NO CLOUDS BELOW 12,000 FEET WITH NO
SIGNIFICANT WEATHER AND/OR OBSTRUCTIONS TO VISIBILITY.

* - THESE STATIONS ARE NOT NWS STATIONS...THUS NOT UNDER NWS
QUALITY CONTROL.  THEY ALSO DO NOT REPORT WEATHER SUCH
AS PRECIPITATION OR FOG.

IAZ001>003-012>014-020>022-031>034-043>046-130900-
   NORTHWEST IOWA

CITY           SKY/WX    TMP DP  RH WIND       PRES   REMARKS
CARROLL *      CLEAR      0  -6  78 NW8       30.63S WCI -15
CHEROKEE *     CLOUDY    -2  -6  84 NE5       30.63S WCI -12
DENISON *      CLOUDY     1  -4  78 N5        30.60F WCI  -8
LE MARS *      MOCLDY     1  -4  78 NE7       30.64F WCI -11
ORANGE CITY *  CLEAR      0  -6  78 N5        30.60F WCI -10
SHELDON *      CLEAR     -8 -11  84 N6        30.60S WCI -21
SIOUX CITY     CLOUDY     6  -6  57 NE9       30.64S WCI  -8
SPENCER        CLOUDY    -6 -14  68 NW9       30.62R WCI -23
STORM LAKE *   CLEAR     -4  -8  84 N10       30.60S WCI -21
$$

IAZ055>058-069>071-079>083-090>094-130900-
   SOUTHWEST IOWA

CITY           SKY/WX    TMP DP  RH WIND       PRES   REMARKS
ATLANTIC *     CLOUDY     5  -2  72 NE8       30.62F WCI  -8
AUDUBON *      CLEAR      1  -4  78 N5        30.61F WCI  -8
CLARINDA *     CLOUDY    12   1  62 NE9       30.65S WCI   0
COUNCIL BLFS * CLOUDY     9   0  66 NE7       30.62R WCI  -3
CRESTON *      CLOUDY     5  -4  66 N9        30.62R WCI  -9
HARLAN  *      MOCLDY     5  -2  72 N12       30.65F WCI -11
LAMONI         CLOUDY     5  -2  72 N7        30.61S WCI  -7
RED OAK *      CLOUDY     9   1  72 NE9       30.64R WCI  -5
SHENANDOAH *   CLOUDY    12   1  62 N9        30.66R WCI   0
$$

IAZ047>049-059>061-072>074-084-130900-
   CENTRAL IOWA

CITY           SKY/WX    TMP DP  RH WIND       PRES   REMARKS
AMES           CLOUDY     2  -5  72 N9        30.64R WCI -13
ANKENY *       CLEAR      3  -4  72 NW7       30.65S WCI  -9
BOONE *        CLEAR      0  -8  71 N10       30.61S WCI -17
CHARITON *     CLEAR      1  -4  78 NW5       30.63R WCI  -8
DES MOINES     CLOUDY     3  -4  72 N6        30.64S WCI  -8
GRINNELL*      PTCLDY     1  -2  85 NW8       30.61S WCI -12
KNOXVILLE *    CLEAR      3  -4  72 NW7       30.62S WCI  -9
MARSHALLTOWN   CLOUDY    -1  -5  82 W6        30.61S WCI -13
NEWTON *       CLEAR      3  -4  72 NW8       30.62S WCI -10
PELLA *        CLOUDY     3  -2  78 NW5       30.65R WCI  -6
$$

IAZ004>006-015-016-023>025-035-036-130900-
   NORTH CENTRAL IOWA

CITY           SKY/WX    TMP DP  RH WIND       PRES   REMARKS
ALGONA *       CLEAR     -2  -6  84 N7        30.60R WCI -16
CLARION *      CLEAR     -4  -9  77 NW6       30.62R WCI -16
ESTHERVILLE    CLOUDY    -6 -10  83 N6        30.60S WCI -19
FORT DODGE *   CLOUDY    -2  -9  71 CALM      30.63S
MASON CITY     CLOUDY    -6 -11  79 NW10      30.61S WCI -24
FOREST CITY *  CLEAR     -2  -8  78 NW8       30.60R WCI -17
WEBSTER CITY * CLEAR     -6 -11  77 NW9       30.61S WCI -22
IOWA FALLS *     N/A     -2  -8  78 NW9       30.61S WCI -18
$$

IAZ007>011-017>019-026>030-037>042-050>054-066-130900-
   NORTHEAST IOWA

CITY           SKY/WX    TMP DP  RH WIND       PRES   REMARKS
CEDAR RAPIDS   CLOUDY     4  -5  66 NW8       30.60R WCI  -9
CHARLES CITY * CLEAR     -2 -13  60 NW12      30.59S WCI -20
CLINTON *      CLEAR      3  -4  72 N8        30.59R WCI -10
DECORAH *      CLEAR     -2 -13  60 NW6       30.56R WCI -14
DUBUQUE        CLEAR      3  -9  57 NW13      30.55R WCI -14
MONTICELLO *   CLEAR      1  -8  66 NW7       30.59S WCI -11
OELWEIN *      CLEAR     -4 -13  65 NW9       30.59S WCI -20
WATERLOO       CLOUDY    -2 -10  69 NW7       30.61S WCI -15
$$

IAZ064-065-067-068-078-130900-
   EAST CENTRAL IOWA

CITY           SKY/WX    TMP DP  RH WIND       PRES   REMARKS
DAVENPORT      CLEAR      5  -5  63 NW8       30.59R WCI  -8
IOWA CITY      CLOUDY     6  -5  60 NW8       30.64R WCI  -7
MT. PLEASANT * CLOUDY     9   0  66 NW9       30.62R WCI  -5
MUSCATINE *    CLEAR      7  -4  61 NW9       30.64R WCI  -7
QUAD CITIES    CLEAR      7  -7  52 NW12      30.60R WCI  -8
$$

IAZ062-063-075>077-085>089-095>099-130900-
   SOUTHEAST IOWA

CITY           SKY/WX    TMP DP  RH WIND       PRES   REMARKS
BURLINGTON     CLOUDY     7  -3  64 N9        30.60S WCI  -7
FAIRFIELD *    CLEAR      5  -4  66 NW9       30.62R WCI  -9
FORT MADISON * CLEAR      7   0  72 N13       30.60S WCI  -9
KEOKUK *       CLEAR      9   0  66 NW7       30.61S WCI  -3
OSKALOOSA *      N/A      5   0  78 NW8       30.63R WCI  -8
CENTERVILLE *    N/A      5   0  78 NW9       30.63S WCI  -9
OTTUMWA        CLOUDY     4  -1  80 NW10      30.63R WCI -11
WASHINGTON *   CLEAR      5  -4  66 NW9       30.63S WCI  -9
$$

ABBREVIATIONS USED IN REMARKS
   TC - TEMPERATURES IN CELSIUS
  WCI - WIND CHILL INDEX
   HX - HEAT INDEX
  VSB - VISIBILITY
$$




USA.gov is the U.S. government's official web portal to all federal, state and local government web resources and services.